Home   Weather   Vaduz   Past weeks

Flag for Liechtenstein Past Weather in Vaduz, Liechtenstein — Yesterday and Last 2 Weeks

Now
52 °F

Haze.


Feels Like: 52 °F
Forecast: 50 / 61 °F
Wind: 1 mph from Northwest

Location: Vaduz

Current Time: Oct 1, 2016 at 9:11:39 AM

Latest Report: Oct 1, 2016 at 8:00 AM


Visibility: 7 mi

Pressure: 29.93 "Hg

Humidity: 85%

Dew Point: 47 °F

Location of VaduzLocation

Past Weather in Vaduz — Graph

°F

Vaduz Temperature Yesterday

Maximum temperature yesterday: 74 °F (at 4:00 PM)
Minimum temperature yesterday: 56 °F (at 8:00 AM)
Average temperature yesterday: 63 °F

High & Low Weather Summary for the Past Weeks

 TemperatureHumidityPressure
High74 °F (Sep 30, 4:00 PM)98% (Sep 24, 3:00 AM)30.46 "Hg (Sep 24, 3:00 AM)
Low49 °F (Sep 24, 7:00 AM)38% (Sep 30, 2:00 PM)29.90 "Hg (Sep 18, 3:00 PM)
Average59 °F78%30.14 "Hg
* Reported Sep 16 7:00 AM — Oct 1 7:00 AM, Vaduz, Weather by CustomWeather, © 2016

Note: Actual official high and low records may vary slightly from our data, if they occured in-between our weather recording intervals... More about our weather records

Advertising

Vaduz Weather History for the Previous 24 Hours

Scroll right to see more
 ConditionsComfort  
Time TempWeatherWind HumidityBarometerVisibility
7:00 AM
Sat, Oct 1
52 °FCool.1 mph86%29.93 "HgN/A
6:00 AM61 °FRefreshingly cool.5 mph56%29.91 "HgN/A
5:00 AM61 °FClear.6 mph54%29.91 "Hg12 mi
4:00 AM62 °FRefreshingly cool.5 mph52%29.92 "HgN/A
3:00 AM61 °FRefreshingly cool.5 mph55%29.94 "HgN/A
2:00 AM62 °FRefreshingly cool.6 mph55%29.95 "HgN/A
1:00 AM62 °FMild.6 mph56%29.96 "HgN/A
12:00 AM61 °FCool.5 mph62%29.98 "HgN/A
11:00 PM
Fri, Sep 30
62 °FClear.5 mph60%30.00 "Hg12 mi
10:00 PM62 °FRefreshingly cool.7 mph59%30.00 "HgN/A
9:00 PM61 °FCool.6 mph66%30.01 "HgN/A
8:00 PM60 °FClear.1 mph78%30.01 "Hg12 mi
7:00 PM63 °FMild.No wind74%29.99 "HgN/A
6:00 PM69 °FMild.5 mph51%29.97 "HgN/A
5:00 PM73 °FPassing clouds.7 mph43%29.94 "Hg12 mi
4:00 PM74 °FMild.7 mph43%29.95 "HgN/A
3:00 PM73 °FMild.3 mph43%29.96 "HgN/A
2:00 PM72 °FPassing clouds.1 mph38%29.99 "Hg12 mi
1:00 PM69 °FMild.2 mph48%30.03 "HgN/A
12:00 PM66 °FMild.6 mph49%30.06 "HgN/A
11:00 AM63 °FSunny.6 mph55%30.09 "Hg12 mi
10:00 AM60 °FCool.7 mph60%30.11 "HgN/A
Weather by CustomWeather, © 2016

See weather overviewHow to use our weather pages